CAPE
36 2 1 0 0 0 0 0 0 0 0 0 0 0 0 0 0 0 0 0 0 0 0 0 0 0 0 0 0 0 0 97 691 695 693 784 844 807 721 463 184 69 0 0
5 3 3 1 0 0 0 0 0 0 0 0 0 0 0 0 0 0 0 0 0 0 0 0 0 0 0 0 0 0 0 0 232 814 845 780 766 923 719 541 335 113 13 0
0 0 0 0 0 0 0 0 0 0 0 0 0 0 0 0 0 0 0 0 0 0 0 0 0 0 0 0 0 0 0 0 0 607 728 277 132 26 230 443 469 231 0 0
0 0 0 0 0 0 0 0 0 0 0 0 0 0 0 0 0 0 0 0 0 0 0 0 0 0 0 0 0 0 0 0 0 17 597 566 548 435 312 349 139 26 0 0
0 0 0 0 0 0 0 0 0 0 0 0 0 0 0 0 0 0 0 0 0 0 0 0 0 0 0 0 0 0 0 0 0 0 39 441 460 372 44 11 13 0 0 0
0 0 0 0 0 0 0 0 0 0 0 0 0 0 0 0 0 0 0 0 0 0 0 0 0 0 0 0 0 0 0 0 0 0 0 4 180 64 24 1 0 0 0 0
0 0 0 0 0 0 0 0 0 0 0 0 0 0 0 0 0 0 0 0 0 0 0 0 0 0 0 0 0 0 0 0 0 0 0 0 3 22 29 10 0 0 0 0
0 0 0 0 0 0 0 0 0 0 0 0 0 0 0 0 0 0 0 0 0 0 0 0 0 0 0 0 0 0 0 0 0 0 0 0 0 0 0 0 0 0 0 0
0 0 0 0 0 0 0 0 0 0 0 0 0 0 0 0 0 0 0 0 0 0 0 0 0 0 0 0 0 0 0 0 0 0 0 0 0 0 0 0 0 0 0 0
0 0 0 0 0 0 0 0 0 0 0 0 0 0 0 0 0 0 0 0 0 0 0 0 0 0 0 0 0 0 0 0 0 0 0 0 0 0 0 0 0 0 0 0
0 0 1 0 0 0 0 0 0 0 0 0 0 0 0 0 0 0 0 0 0 0 0 0 0 0 0 0 0 0 0 0 0 0 0 0 0 0 0 0 0 0 0 0
0 0 0 0 0 0 0 0 0 0 0 0 0 0 0 0 0 0 0 0 0 0 0 0 0 0 0 0 0 0 0 0 0 0 0 0 0 0 0 0 0 0 0 0
0 0 0 0 0 0 0 0 0 0 0 0 0 0 0 0 0 0 0 0 0 0 0 0 0 0 0 1 0 0 0 0 0 0 0 0 0 0 0 0 0 0 0 0
0 0 0 0 0 0 0 0 0 0 0 0 0 0 0 0 0 0 0 0 0 0 0 0 0 0 0 0 0 0 0 0 0 0 0 0 0 0 0 0 0 0 0 0
0 0 0 0 0 0 0 0 0 0 0 0 0 0 0 0 0 0 0 0 0 0 0 0 0 0 0 0 0 0 0 0 0 0 0 0 0 0 0 0 0 0 0 0
0 0 0 0 0 0 0 0 0 0 0 0 0 0 0 0 0 0 0 0 0 0 0 0 0 0 0 0 0 0 0 0 0 0 0 0 0 0 0 0 0 0 0 0
0 0 0 0 0 0 0 0 0 0 0 0 0 0 0 0 0 0 0 0 0 0 0 0 0 0 0 0 0 0 0 0 0 0 0 0 0 0 0 0 0 0 0 0
0 0 0 0 0 0 0 0 0 0 0 0 0 0 1 0 0 0 0 0 0 0 0 0 0 0 0 0 0 0 0 0 0 0 0 0 0 0 0 0 0 0 0 0
0 0 0 0 0 0 0 0 0 0 0 0 0 0 0 0 0 0 0 0 0 0 0 0 0 0 0 0 0 0 0 0 0 0 0 0 0 0 0 0 0 0 0 0
7 3 0 0 0 0 0 0 0 0 0 0 0 0 0 0 0 0 0 0 0 0 0 0 0 0 0 0 0 0 0 0 0 0 0 0 0 0 0 0 0 0 0 0
1 3 0 0 0 0 0 0 0 0 0 0 0 0 0 0 0 0 1 0 0 0 0 0 0 0 0 0 0 0 0 0 2 3 2 2 1 0 0 0 0 0 0 0
0 0 1 1 0 0 0 0 0 0 0 0 0 0 0 0 0 0 1 2 2 1 0 0 0 0 0 0 0 1 1 1 1 1 2 0 0 1 0 0 0 0 0 0
0 0 0 0 0 0 0 0 0 0 0 0 0 0 0 0 0 0 1 2 2 1 1 1 0 1 0 2 0 0 2 0 0 0 0 0 0 0 0 0 0 0 0 0
0 0 0 0 0 0 0 0 0 0 0 0 0 0 0 0 0 0 0 1 1 1 3 1 1 1 0 0 0 0 0 0 0 0 0 0 0 0 0 0 0 0 0 0
0 0 0 0 0 0 0 0 0 0 0 0 0 0 0 0 0 0 0 0 0 0 0 0 0 0 0 0 0 0 0 0 0 0 0 0 0 0 0 0 0 0 0 0
0 0 0 0 2 1 0 0 0 0 0 0 0 0 0 0 0 0 0 0 0 0 0 0 0 0 0 0 0 0 0 0 0 0 0 0 0 0 0 0 0 0 0 0
CIN
-4 -6 -0 0 0 0 0 0 0 0 0 0 0 0 0 0 0 0 0 0 0 0 0 0 0 0 0 0 0 0 0 -91 -89 -76 -63 -70 -77 -103 -103 -133 -149 -204 0 0
-1 -2 -25 -37 0 0 0 0 0 0 0 0 0 0 0 0 0 0 0 0 0 0 0 0 0 0 0 0 0 0 0 0 -108 -91 -78 -93 -99 -87 -117 -124 -115 -155 -253 0
-1 0 0 0 0 0 0 0 0 0 0 0 0 0 0 0 0 0 0 0 0 0 0 0 0 0 0 0 0 0 0 0 0 -92 -105 -177 -205 -123 -123 -115 -94 -147 0 0
-0 0 0 0 0 0 0 0 0 0 0 0 0 0 0 0 0 0 0 0 0 0 0 0 0 0 0 0 0 0 0 0 0 -68 -129 -97 -77 -74 -113 -104 -222 -205 0 0
0 0 0 0 0 0 0 0 0 0 0 0 0 0 0 0 0 0 0 0 0 0 0 0 0 0 0 0 0 0 0 0 0 0 -156 -130 -75 -133 -325 -256 -196 0 0 0
0 0 0 0 0 0 0 0 0 0 0 0 0 0 0 0 0 0 0 0 0 0 0 0 0 0 0 0 0 0 0 0 0 0 0 -64 -185 -277 -227 -90 0 0 0 0
0 0 0 0 0 0 0 0 0 0 0 0 0 0 0 0 0 0 0 0 0 0 0 0 0 0 0 0 0 0 0 0 0 0 0 0 -125 -161 -152 -237 0 0 0 0
0 0 0 0 0 0 0 0 0 0 0 0 0 0 0 0 0 0 0 0 0 0 0 0 0 0 0 0 0 0 0 0 0 0 0 0 0 -27 -19 -13 0 0 0 0
0 0 0 0 0 0 0 0 0 0 0 0 0 0 0 0 0 0 0 0 0 0 0 0 0 0 0 0 0 0 0 0 0 0 0 0 0 0 0 0 0 0 0 0
0 0 0 -14 -4 0 0 0 0 0 0 0 0 0 0 0 0 0 0 0 0 0 0 0 0 0 0 0 0 0 0 0 0 0 0 0 0 0 0 0 0 0 0 0
0 0 -2 -3 -0 0 0 0 0 0 0 0 0 0 0 0 0 0 0 0 0 0 0 0 0 0 0 0 0 0 0 0 0 0 0 0 0 0 0 0 0 0 0 0
0 0 0 -4 0 0 0 0 0 0 0 0 0 0 0 0 0 0 0 0 0 0 0 0 0 0 0 0 0 0 0 0 0 0 0 0 0 0 0 0 0 0 0 0
0 0 0 0 0 0 0 0 0 0 0 0 0 0 0 0 0 0 0 0 0 0 0 0 0 0 0 -55 0 0 0 0 0 0 0 0 0 0 0 0 0 0 0 0
0 0 0 0 0 0 0 0 0 -1 0 0 0 0 0 0 0 0 0 0 0 0 0 0 0 0 0 0 0 0 0 0 0 0 0 0 0 0 0 0 0 0 0 0
0 0 0 0 0 0 -0 0 0 0 0 0 0 0 0 0 0 0 0 0 0 0 0 0 0 0 -4 0 0 0 0 0 0 0 0 0 0 0 0 0 0 0 0 0
0 0 0 0 0 0 0 0 0 0 0 0 0 0 0 0 0 0 0 0 0 0 0 0 0 0 0 0 0 0 0 0 0 0 0 0 0 0 0 0 0 0 0 0
0 0 0 0 0 0 0 0 0 0 0 0 0 0 0 0 0 0 0 0 0 0 0 0 0 0 0 0 0 0 0 0 0 0 0 0 0 0 0 0 0 0 0 0
0 0 0 0 0 0 0 0 0 0 0 0 0 -3 -11 0 0 0 0 0 0 0 0 0 0 0 0 0 0 0 0 0 0 0 0 0 0 0 0 0 0 0 0 0
0 0 0 0 0 0 0 0 0 0 0 0 0 -1 0 0 0 0 0 0 0 0 0 0 0 0 0 0 0 0 0 0 0 0 0 0 0 0 0 0 0 0 0 0
-1 -3 -0 -0 0 0 0 0 0 0 0 0 0 0 0 0 -3 0 0 0 0 0 0 0 0 0 0 0 0 0 0 0 0 0 0 0 0 0 0 0 0 0 0 0
-0 -0 -0 0 -0 0 0 0 0 0 0 0 0 0 0 0 0 0 0 0 0 0 0 0 0 0 0 0 0 0 0 0 0 0 0 0 0 0 0 0 0 0 0 0
0 0 0 -1 -1 0 0 0 0 0 0 0 0 0 0 0 0 0 0 0 0 0 0 0 0 0 0 0 0 0 0 0 0 0 0 0 0 0 0 0 0 0 0 0
0 0 0 0 0 0 0 0 0 0 0 0 0 0 0 0 0 0 0 0 0 0 0 0 0 0 0 0 0 0 0 0 0 0 0 0 0 0 0 0 0 0 0 0
0 0 0 0 0 0 0 0 0 0 0 0 0 0 0 0 0 0 0 0 0 0 0 0 0 0 0 0 0 0 0 0 0 0 0 0 0 0 0 0 0 0 0 0
-2 0 0 0 0 0 0 0 0 0 0 0 0 0 0 0 0 0 0 0 0 0 0 0 0 0 0 0 0 0 0 0 0 0 0 0 0 0 0 0 0 0 0 0
0 0 0 0 -8 -14 -9 0 0 0 0 0 0 0 0 0 0 0 0 0 0 0 0 0 0 0 0 0 0 0 0 0 0 0 0 0 0 0 0 0 0 0 0 0
Wind_Speed
24 28 30 28 26 23 23 26 32 31 29 32 37 41 41 40 42 44 44 43 44 45 42 39 39 41 45 49 48 34 25 18 19 19 17 17 16 15 14 14 13 10 9 8
23 33 27 24 25 28 31 34 35 33 28 32 36 44 44 45 44 45 48 47 44 42 40 39 38 36 34 37 41 44 38 27 21 22 21 21 19 20 17 15 15 13 11 10
24 26 21 23 24 27 29 30 29 31 31 29 36 44 40 38 36 38 40 40 40 42 44 43 40 38 37 36 33 33 35 32 26 24 23 23 20 22 20 18 17 16 16 13
24 20 20 23 24 22 26 22 25 27 29 34 26 37 32 32 33 29 27 29 33 34 33 33 35 38 37 36 31 31 30 29 26 25 27 26 26 25 23 21 21 20 19 16
20 21 18 22 25 20 22 18 21 23 26 30 29 30 27 25 26 22 19 24 28 27 26 29 28 28 30 32 33 32 31 30 27 25 26 29 30 28 26 23 22 21 21 20
17 16 18 20 18 21 15 18 20 21 23 29 25 26 27 20 20 18 22 28 26 21 22 25 26 25 24 23 25 28 29 32 30 29 28 29 30 29 27 25 24 22 21 20
16 17 17 17 15 15 16 16 22 23 23 25 19 22 28 22 25 26 30 29 23 22 22 21 20 19 19 19 20 21 24 29 29 30 31 31 30 30 29 27 26 24 23 22
19 23 19 18 19 18 17 17 19 23 22 24 22 24 19 22 27 26 22 20 21 25 27 28 26 24 23 23 24 26 28 30 32 32 31 29 31 30 30 27 26 27 26 23
18 18 17 16 15 12 16 20 17 20 21 26 23 23 26 18 17 18 19 25 29 32 34 33 28 27 27 26 27 29 32 35 38 38 32 28 27 28 28 27 25 25 25 22
17 15 14 15 16 16 15 11 16 18 22 25 23 23 22 19 20 21 26 31 37 40 41 39 35 33 32 30 30 31 34 38 39 34 30 28 25 24 23 23 24 23 21 20
18 16 19 16 20 16 15 16 16 15 17 21 24 23 20 19 22 26 31 37 37 40 42 44 43 40 33 30 30 34 36 37 33 28 26 26 26 24 21 20 20 20 18 17
19 17 18 19 20 21 24 20 17 18 20 21 24 26 17 23 24 31 43 43 45 37 38 38 39 34 26 27 28 32 34 32 27 22 22 23 22 22 20 18 16 16 16 15
19 18 18 20 22 21 23 23 18 18 19 26 25 23 18 28 38 40 41 43 39 35 30 35 35 30 28 28 29 27 26 25 21 20 18 18 18 19 18 16 14 12 12 12
17 18 20 24 19 15 19 16 5 7 21 21 20 33 35 36 39 41 42 42 35 30 29 33 30 26 28 26 24 24 23 20 19 17 16 16 16 15 14 14 13 12 11 10
17 22 22 25 26 23 21 17 1 11 15 23 29 33 29 30 33 33 36 38 39 34 31 27 22 18 20 20 19 20 21 17 16 15 12 13 12 11 10 10 11 10 9 7
16 19 20 24 25 28 31 28 28 15 25 28 27 31 27 24 33 36 35 38 35 30 25 19 19 16 14 15 16 16 15 13 12 11 10 9 8 7 8 6 8 7 6 5
15 17 20 22 19 22 26 23 22 25 17 6 20 22 24 31 33 30 33 33 29 29 24 18 18 17 16 15 15 14 11 10 6 3 4 7 6 5 4 4 4 5 5 5
15 15 18 21 21 22 20 21 5 11 13 15 14 17 21 28 25 22 26 30 26 22 24 21 20 19 18 17 15 11 7 5 4 3 3 5 5 3 4 4 5 6 3 7
14 16 20 22 23 24 18 15 16 17 22 11 9 13 8 24 16 17 25 23 22 20 20 20 21 21 21 19 15 11 10 10 8 6 7 4 3 3 4 4 2 6 3 4
17 17 19 21 21 22 18 15 17 17 19 10 9 12 26 25 23 22 24 21 22 21 20 20 21 21 20 20 20 18 15 11 3 1 2 3 5 5 2 3 7 6 7 9
22 23 27 25 23 23 22 18 14 18 21 13 8 3 16 19 18 18 19 21 21 23 23 21 22 22 22 22 19 6 7 17 14 2 7 8 9 14 9 6 6 8 9 11
19 20 20 21 23 23 17 13 18 21 24 24 22 17 17 16 16 18 20 21 22 23 23 21 22 23 21 21 20 26 26 22 9 17 18 17 16 16 12 10 10 11 11 12
22 21 19 21 21 21 18 21 22 24 23 23 19 14 13 13 13 16 19 19 22 24 26 26 26 27 28 22 27 27 28 29 22 22 12 12 13 15 15 14 14 14 14 16
24 23 24 20 21 24 22 23 11 16 20 21 16 12 10 10 9 12 16 18 21 24 25 26 26 26 26 25 23 24 24 24 23 21 19 17 16 16 16 15 15 16 17 18
25 20 25 28 29 27 25 20 15 16 18 20 17 12 9 8 10 11 12 16 17 21 22 22 23 23 23 23 23 23 23 23 22 21 20 18 16 16 16 17 17 17 18 20
30 33 32 29 24 24 25 19 16 14 17 19 16 14 10 9 11 12 12 11 14 17 18 19 19 21 22 21 20 20 20 20 19 18 17 17 16 16 17 17 19 20 21 21
Wind_Direction
236 240 241 243 252 266 262 261 264 267 271 274 268 269 269 269 270 269 267 268 265 263 263 266 265 261 258 256 257 267 266 255 245 250 250 252 243 251 250 245 247 244 236 242
239 241 245 251 255 259 259 260 264 269 272 275 273 269 269 267 270 269 263 263 267 268 268 267 266 266 268 267 264 263 266 263 250 248 247 257 251 260 255 250 253 246 240 242
239 248 246 251 256 255 259 259 265 269 277 280 279 272 276 277 277 274 270 270 271 269 267 267 268 268 268 269 271 273 269 265 260 251 254 264 263 269 263 257 248 247 251 243
245 250 246 247 252 259 258 270 271 274 277 269 286 273 280 280 278 279 284 283 278 275 275 276 274 270 270 271 273 274 276 272 264 257 255 252 253 255 258 254 256 255 255 249
244 240 244 250 253 257 264 277 275 277 278 279 277 275 282 288 287 288 293 297 295 284 284 284 285 282 278 277 276 274 274 273 271 260 258 257 258 260 262 260 254 255 259 260
248 251 255 256 263 255 266 274 280 282 281 274 278 273 282 290 295 299 297 299 305 303 299 293 292 292 292 291 286 281 279 276 273 266 261 257 258 258 258 258 256 257 258 259
244 251 257 256 255 261 261 268 269 272 271 271 287 281 280 284 290 297 298 302 309 314 309 307 304 302 299 297 296 293 288 282 280 275 265 259 255 253 253 251 253 254 255 258
239 244 247 252 251 256 256 263 268 268 273 278 285 281 292 299 299 302 312 322 318 317 316 311 304 303 300 297 295 294 291 288 285 278 270 264 258 257 256 252 253 255 255 257
240 250 249 254 255 259 261 263 277 278 288 284 287 293 298 318 325 325 325 318 313 312 313 314 316 308 304 300 296 294 292 289 285 278 274 266 260 255 253 253 252 254 258 257
237 243 248 248 248 259 272 274 277 283 282 283 293 297 297 305 315 321 319 316 314 313 310 309 310 305 300 297 296 295 294 289 284 278 270 266 259 251 248 249 250 250 254 253
228 242 237 242 248 255 261 269 283 293 295 297 298 301 307 315 316 318 317 320 320 316 313 310 305 307 298 297 297 295 292 291 287 276 267 267 259 250 246 245 249 249 251 250
235 239 241 244 246 246 249 264 273 287 292 293 294 297 326 321 325 315 307 315 316 322 322 323 318 319 310 301 301 297 294 289 282 273 266 266 254 246 244 245 245 246 248 246
233 242 243 245 251 261 262 264 280 291 302 285 290 303 331 316 306 310 316 314 326 328 329 329 328 323 316 308 301 299 302 292 279 272 266 260 248 243 243 246 242 244 242 237
247 250 245 239 261 283 276 287 275 293 292 303 304 275 276 284 303 305 304 322 332 334 332 330 331 326 315 304 305 306 306 298 284 270 265 253 246 245 242 243 241 238 231 228
253 246 260 255 254 272 283 296 339 185 195 296 294 276 263 272 282 285 294 332 330 341 343 347 350 349 321 313 315 318 309 298 284 274 263 250 246 244 243 238 238 232 230 227
262 262 274 259 262 259 242 222 217 191 213 229 239 254 260 263 296 312 336 331 344 353 356 8 17 35 25 344 330 330 323 306 290 279 265 248 238 246 237 231 230 224 215 227
272 279 271 261 281 284 270 228 192 222 198 230 236 245 262 299 309 342 337 347 1 5 13 38 41 51 54 34 3 342 335 312 300 310 261 240 233 215 230 211 200 206 222 231
282 282 279 260 280 275 280 270 315 141 191 198 216 240 253 289 342 359 3 354 11 32 30 40 51 49 53 36 22 16 2 323 280 277 259 243 219 232 218 188 199 216 244 258
286 284 274 273 261 261 268 286 305 325 270 119 188 228 194 296 19 23 2 20 26 43 53 52 53 59 59 49 39 30 16 24 5 279 252 236 192 204 201 212 182 251 39 15
279 290 280 269 262 240 266 295 322 352 262 136 172 224 310 346 354 10 359 42 44 45 52 59 72 68 62 67 73 63 55 34 324 266 242 244 228 215 145 198 72 40 355 334
255 257 236 249 249 252 239 267 355 279 286 10 35 107 23 8 21 41 42 52 60 55 45 74 77 77 101 125 121 79 38 113 60 355 68 83 66 81 68 44 5 8 344 338
263 257 271 257 247 243 271 314 277 298 293 284 324 354 5 21 21 30 42 57 65 57 62 59 63 72 64 72 66 92 81 71 66 77 75 77 75 70 56 36 18 21 13 1
257 265 268 250 249 253 267 267 270 283 283 332 354 15 14 27 12 34 39 56 75 72 80 77 77 80 101 146 89 84 89 89 79 80 63 58 53 61 62 44 32 25 16 4
264 264 254 268 257 246 254 245 209 6 359 354 10 30 38 24 25 50 44 49 63 80 77 85 79 74 74 76 75 79 83 85 82 77 70 63 59 50 42 31 22 13 6 1
265 278 255 250 247 250 267 287 1 12 3 350 358 24 48 46 65 70 67 67 64 76 78 77 76 76 76 78 78 84 87 85 78 78 74 64 55 47 34 24 21 17 11 5
262 251 245 250 262 264 264 315 359 22 6 358 14 31 64 82 81 81 91 74 78 81 80 76 75 79 84 83 80 78 81 85 79 66 60 55 47 38 30 21 12 9 7 5